Location: ??????
(36.0418°N, 43.6351°E)
Time: 05:58:47
(UTC+00:00)

USA 238 DEB - Pass Details

Date: 07 March 2021
Orbit: 995 x 1217 km, 63.4° (Epoch: 18 April)

Event Time Altitude Azimuth Distance (km) Brightness Sun altitude
Rises 02:50:29 0° 321° (NW) 4,007 6.3 -8.3°
Reaches altitude 10° 02:53:16 10° 315° (NW) 3,072 5.7 -7.8°
Maximum altitude 03:00:10 44° 247° (WSW) 1,602 4.3 -6.4°
Drops below altitude 10° 03:07:15 10° 178° (S) 3,150 6.2 -4.9°
Sets 03:10:10 0° 172° (S) 4,117 6.9 -4.4°
